Location: ????????
(55.6333°N, 37.7000°E)
Time: 01:47:29
(UTC+00:00)

USA 59 Rocket - Pass Details

Date: 19 May 2025
Orbit: 373 x 1696 km, 63.3° (Epoch: 14 June)

Event Time Altitude Azimuth Distance (km) Brightness Sun altitude
Exits shadow 20:23:38 26° 154° (SSE) 822 0.1 -13.3°
Maximum altitude 20:24:15 28° 131° (SE) 763 0.1 -13.3°
Drops below altitude 10° 20:26:52 10° 68° (ENE) 1,393 2.0 -13.4°
Sets 20:28:58 0° 56° (ENE) 2,254 3.2 -13.4°
